Погода в Зосени

Погода в Зосени : погода сейчас, прогноз погоды и архив. Всё, что Вы хотите узнать о погоде в Зосени!

Поиск расширенной информации на нашем сайте:

Другие новости

Новости СМИ2

Главная страница сайта

Новости сайта

03.07.2017

Напоминаем, что на нашем специализированном сайте Метеоцентр.Азия вы можете получить высокодетализированные автоматические прогнозы погоды по пунктам России, СНГ и мира в авиационном формате (включающие направление и скорость ветра, видимость, явления погоды, количество и форму облачности, нижнюю и верхнюю границу облачности).


Погода в Зосени - сегодня

Время (UTC), дата Ветер
(°,м/с) 
Видим.   Явления Облачность Т
(°С)
Тd
(°С)
f(%) Тe
(°С)
Pmin
(гПа)
dP
(гПа)
Po
(мм)
O2
(г/м3)
Тmin Tmax R s Состояние
почвы
03 08.02.18 180 (Ю) н/о    н/о 
-11.9 -12.9 92 -14  1023.7  750  316           
06 08.02.18 150 (ЮВ) 20000 м    10/0 кучево-дожд. 
[Cb calv]
-10.6 -11.4 94 -12  1023.4  -0.1  750  315  -13.2      16  неравномерный
сухой снег
100% 
09 08.02.18 170 (Ю) н/о    н/о 
-8.5 -9.2 95 -10  1023.2  750  312           
12 08.02.18 130 (ЮВ) н/о    н/о 
-7.6 -8.6 93 -9  1022.5  -0.6  749  311           
15 08.02.18 тихо ()   н/о    н/о 
-7.3 -8 95 -7  1022.2  -0.3  749  310           
18 08.02.18 130 (ЮВ) н/о    10/0 кучево-дожд. 
[Cb calv]
-7.7 -8.2 96 -7  1022.4  0.2  749  311    -6.9       
21 08.02.18 тихо ()   н/о    н/о 
-7.5 -8 96 -8  1022.1  -0.3  749  310           
00 09.02.18 020 (С) н/о    н/о 
-7.4 -7.9 96 -7  1022.4  0.3  748  311           
06 09.02.18 тихо ()   0500 м  туман  ?/?  
-8.8 -9.4 95 -9  1022.6  0.2  749  312  -8.9      16  неравномерный
сухой снег
100% 
09 09.02.18 360 (С) н/о    н/о 
-9.3 -10 95 -9  1023.3  0.6  750  313           
12 09.02.18 090 (В) н/о    н/о 
-9.3 -10 95 -9  1023.3  749  313           
15 09.02.18 080 (В) н/о    н/о 
-9.7 -10.4 95 -10  1023  -0.3  750  314           
18 09.02.18 070 (В) н/о    10/0 
[St]
-10.3 -11.1 94 -12  1023.5  0.4  750  314    -8.8       
09 22.02.18 тихо ()   н/о    н/о 
-13.7 -15.3 88 -14  1032.7  0.4  756  321           
21 11.03.18 140 (ЮВ) н/о    н/о 
+0.1 -1.7 88 -2  1011.4  -1  742  298           
21 02.04.18 280 (З) 7-11{14}  н/о    н/о 
-0.5 -1.3 94 -4  999.7  3.2  733  295           
18 21.04.18 //0 (С) //{17}  н/о    н/о 
    302    +13.4       
21 23.04.18 140 (ЮВ) н/о    н/о 
+9 +0.6 56 +9  1008.9  -1.6  740  288           
06 25.04.18 250 (З) 5{10}  4000 м  слаб. ливневой дождь  10/0 кучево-дожд. 
[Cb cap]
+6.5 +4.6 88 +5  1001.7  0.7  735  288  +6.5    0.6     
18 29.04.18 140 (ЮВ) 20000 м    9/0 кучево-дожд. 
[Cb calv]
+13.1 +7.3 68 +14  1011.6  -0.4  743  284    +18.3       
21 06.05.18 тихо ()   20000 м    1/0 верхняя 
[Ci fib]
+14.7 +4 49 +15  1024.6  -0.2  752  286    +18.9       
15 21.05.18 110 (В) н/о    н/о 
+21.3 +3.9 32 +21  1026.2  -1.8  754  281           
15 06.06.18 310 (СЗ) н/о    н/о 
+10.9 +1.9 54 +11  1018.7  0.3  748  289           
18 09.06.18 340 (С) н/о    н/о 
+17.6 +6.1 47 +19  1016  746  281    +21       
15 14.06.18 250 (З) н/о    н/о 
+23.2 +6 33 +23  1011.8  -0.4  743  274           
Время (UTC), дата Ветер
(°,м/с) 
Видим.   Явления Облачность Т
(°С)
Тd
(°С)
f(%) Тe
(°С)
Pmin
(гПа)
dP
(гПа)
Po
(мм)
O2
(г/м3)
Тmin Tmax R s Состояние
почвы

Для получения пояснительной информации подведите курсор к названию столбца.

ПОГОДА в Зосени - архив

Всё, что Вы хотите узнать о погоде в Зосени - удобно и подробно!

Выберите нужную дату (начиная с 1 января 2015* года) и нажмите кнопку "Найти".
Будут отображены архивные сводки погоды по пункту Зосени, начиная с указанной даты.


Отображать данные в формате CSV (для использования в таблицах Excel)


Внимание! Наш архив погоды предназначен исключительно для личного некоммерческого использования в познавательных целях. Если Вам необходимы официальные справки о состоянии погоды (для производственных, юридических, коммерческих и т.п. целей), обращайтесь в органы Росгидромета.

*Примечание: данная дата относится к архиву по метеостанциям СССР (Россия, СНГ, Балтия).
Архив по метеостанциям Зарубежной Европы и Азии (кроме Китая) хранится 10 дней, по другим регионам земного шара (Китай, Африка, Америка, Австралия, Океания) - 1 день.

Зосени - район местоположения метеостанции


Название, широта, долгота, высота метеостанции:
Зосени 57.1°ш. 25.9°д. 180 м над ур. моря [Латвия]

Дополнительная информация

В oтличие oт бoльшинства пoгoдных сайтoв мы публикуем пoдрoбную метеoинфoрмацию в детальнoм прoфессиoнальнoм фoрмате.

Характеристики температуры и влажнoсти вoздуха измеряются на высoте 2 м в тени вдали oт зданий и деревьев.
Скoрoсть ветра измеряется на высoте 10 м (на урoвне рoста челoвека скoрoсть ветра ниже в 1.5-2 раза). Если метеoстанция нахoдится в гoрoде или в лесу, тo скoрoсть ветра занижена на 2-4 м/с пo сравнению с oткрытым местoм. Скoрoсть ветра над акватoриями крупных рек и oзёр, а также на вершинах хoлмoв на 2-5 м/с выше, чем в oбычных услoвиях.
Атмoсфернoе давление в разных тoчках местнoсти мoжет значительнo oтличаться oт давления на метеoстанции, в зависимoсти oт услoвий рельефа (при пoдъёме на 10 м давление пoнижается примернo на 1 мм рт.ст.).